Weather History for KCSV - January, 2014

Change the Weather History Date:

Sunday, January 12, 2014

  Actual Average Record
Temperature  
Mean Temperature 50 °F 36 °F  
Max Temperature 66 °F 44 °F 67 °F (2013)
Min Temperature 34 °F 27 °F -3 °F (1981)
Degree Days  
Heating Degree Days 15    
Month to date heating degree days 386  
Since 1 July heating degree days 2066  
Moisture  
Dew Point 31 °F    
Average Humidity 52    
Maximum Humidity 82    
Minimum Humidity 22    
Precipitation  
Precipitation 0.00 in 0.16 in 1.61 in (1989)
Month to date precipitation 1.48 1.84  
Year to date precipitation 1.48 1.84  
Sea Level Pressure  
Sea Level Pressure 30.05 in    
Wind  
Wind Speed 5 mph (SW)    
Max Wind Speed 9 mph    
Max Gust Speed 16 mph    
Visibility 9 miles    
Events      
T = Trace of Precipitation, MM = Missing Value Source: NWS Daily Summary

Daily Weather History Graph

Daily Weather History Graph

Search for Another Location

Airport or City:

Trip Planner

Search our weather history database for the weather conditions in past years. The results will help you decide how hot, cold, wet, or windy it might be!

Date:

Astronomy

Jan. 12, 2014 Rise Set
Actual Time 6:50 AM CST 4:46 PM CST
Civil Twilight 6:22 AM CST 5:14 PM CST
Nautical Twilight 5:51 AM CST 5:46 PM CST
Astronomical Twilight 5:20 AM CST 6:17 PM CST
Moon 2:13 PM CST (1/12) 3:49 AM CST (1/12)
Length of Visible Light 10h 52m
Length of Day
9h 56m
Waxing Gibbous, 90% of the Moon is Illuminated
Jan 12
Waxing Gibbous
Jan 15
Full
Jan 23
Last Quarter
Jan 30
New
Feb 6
First Quarter

Hourly Weather History & Observations

Time (CST) Temp. Windchill Dew Point Humidity Pressure Visibility Wind Dir Wind Speed Gust Speed Precip Events Conditions
12:53 AM 46.0 °F 43.9 °F 30.9 °F 56% 29.93 in 10.0 mi SW 4.6 mph - N/A   Clear
1:53 AM 46.9 °F - 32.0 °F 56% 29.94 in 10.0 mi WSW 4.6 mph - N/A   Clear
2:53 AM 46.0 °F 43.9 °F 32.0 °F 58% 29.97 in 10.0 mi West 4.6 mph - N/A   Clear
3:53 AM 39.9 °F - 32.0 °F 73% 29.98 in 10.0 mi Calm Calm - N/A   Clear
4:53 AM 34.0 °F - 28.9 °F 82% 30.00 in 5.0 mi Calm Calm - N/A   Haze
5:53 AM 44.1 °F 42.5 °F 30.9 °F 60% 30.02 in 7.0 mi WSW 3.5 mph - N/A   Clear
6:53 AM 43.0 °F 40.3 °F 30.9 °F 62% 30.06 in 4.0 mi WSW 4.6 mph - N/A   Haze
7:30 AM 44.6 °F 42.2 °F 32.0 °F 61% 30.07 in 4.0 mi West 4.6 mph - N/A   Haze
7:53 AM 48.0 °F - 33.1 °F 56% 30.08 in 4.0 mi WSW 3.5 mph - N/A   Haze
8:53 AM 51.1 °F - 35.1 °F 54% 30.11 in 10.0 mi West 4.6 mph - N/A   Clear
9:53 AM 55.9 °F - 34.0 °F 44% 30.12 in 10.0 mi Variable 3.5 mph - N/A   Clear
10:53 AM 57.9 °F - 32.0 °F 37% 30.11 in 10.0 mi WSW 4.6 mph - N/A   Clear
11:53 AM 63.0 °F - 30.9 °F 30% 30.07 in 10.0 mi SW 6.9 mph - N/A   Clear
12:53 PM 64.0 °F - 26.1 °F 24% 30.05 in 10.0 mi Variable 5.8 mph - N/A   Clear
1:53 PM 66.0 °F - 26.1 °F 22% 30.04 in 10.0 mi SW 4.6 mph - N/A   Clear
2:53 PM 64.9 °F - 32.0 °F 29% 30.05 in 10.0 mi South 8.1 mph - N/A   Clear
3:53 PM 66.0 °F - 28.0 °F 24% 30.06 in 10.0 mi Variable 6.9 mph - N/A   Clear
4:53 PM 60.1 °F - 30.0 °F 32% 30.08 in 10.0 mi South 5.8 mph - N/A   Clear
5:53 PM 57.9 °F - 30.9 °F 36% 30.07 in 10.0 mi SSE 5.8 mph - N/A   Clear
6:53 PM 48.9 °F - 30.0 °F 48% 30.09 in 10.0 mi Calm Calm - N/A   Clear
7:53 PM 55.0 °F - 30.9 °F 40% 30.07 in 10.0 mi South 6.9 mph - N/A   Clear
8:53 PM 55.0 °F - 30.9 °F 40% 30.07 in 10.0 mi South 5.8 mph - N/A   Clear
9:53 PM 55.9 °F - 30.0 °F 37% 30.06 in 10.0 mi South 6.9 mph - N/A   Clear
10:53 PM 55.0 °F - 30.0 °F 38% 30.05 in 10.0 mi Variable 6.9 mph - N/A   Clear
11:53 PM 57.0 °F - 28.9 °F 34% 30.04 in 10.0 mi SSW 5.8 mph - N/A   Clear